THORAD AGENA D DEB, 4651

Orbit data source: Space-Track

THORAD AGENA D DEB, 4651 is space debris in SSO originally from a launch on Wed, 08 Apr 1970 UTC launched from the Air Force Western Test Range (AFWTR). Debris objects in space refer to the collection of defunct objects orbiting the Earth. Examples of debris include non-operational satellites, rocket bodies, and fragments generated from explosions, collisions, or faulty payload assembly.

Loading next visibility...
Identifier
4651, 1970-025AK
Orbit
SSO
Country
Flag of USUS
Related business
Manufacturer
Unknown
Mission
Spacecraft
Bus & Motor
Unknown
Mass
Unknown
Launch date (UTC)
1970-04-08 (56 years ago)
Launch vehicle
Unknown
Launch site
Air Force Western Test Range (AFWTR)
Object type
Payload
Rocket body
Debris
Shape & HBR
Unknown shape, 0.2 m
Radar Cross Section
Medium (>0.1 m² and <1 m²)

Expand to show TLE details & history
Last TLE update: 15 hours ago

TLE from 15 hours ago
0 THORAD AGENA D DEB
1 04651U 70025AK  26236.85828990  .00000699  00000-0  48008-3 0  9995
2 04651 100.1508 198.3552 0040628 263.9919  95.6613 14.03194271845352
Epoch: 2026-08-24T20:35Z
TLE epoch observation values (Epoch: 2026-08-24T20:35:56.247Z)
Latitude
0.00004°
Longitude
-83.76313°
Altitude
888.626 km
Speed
7.406 km/s
True Right ascension
13h 13m 25s
True Declination
0° 00' 00"
Sunlit
Object was in daylight at epoch
Visualization orbit readout
Latitude
Unknown
Longitude
Unknown
Altitude
Unknown
Speed
Unknown
Apparent Right ascension
Unknown
Apparent Declination
Unknown
Sunlit
N/A
Visualization observer readout
Local Sidereal Time
02:29:17
Azimuth
Unknown
Elevation
Unknown
Doppler factor
Unknown
Orbital elements
Apogee altitude
909.498 km
Perigee altitude
850.522 km
Semi-major axis
7,258.147 km
Eccentricity
0.00406
Inclination
100.1508°
RAAN
198.3552°
Arg. of periapsis
263.9919°
True anomaly
96.12435°
Mean anomaly
95.6613°
Eccentric anomaly
95.89285°
Mean motion
3.50998 °/min
Orbital period
102.56 mins
BSTAR
0.00048008
Loading maneuver chart data...
Computing Atmospheric mass density...

Documentation

Showing up to 5 results
|